Flag for Cameroon Weather past 2 weeks in Bamenda, Cameroon

Now
86 °F

Thunderstorms. Broken clouds.


Feels Like: 97 °F
Forecast: 62 / 80 °F
Wind: No wind

Location: Douala Obs.

Current Time: Mar 30, 2015 at 10:47:25 AM

Latest Report: Mar 30, 2015 at 10:00 AM


Visibility: N/A

Pressure: 29.92 "Hg

Humidity: 75%

Dew point: 77 °F

Location of BamendaLocation

Historic Weather in Bamenda — Graph

°F

Bamenda temperature yesterday

Maximum temperature yesterday: 90 °F (at 2:00 PM)
Minimum temperature yesterday: 77 °F (at 3:00 AM)
Average temperature yesterday: 82 °F

Past Weeks' High & Low Weather Summary

 TemperatureHumidityPressure
High93 °F (Mar 16, 3:00 PM)100% (Mar 16, 8:00 AM)30.01 "Hg (Mar 16, 8:00 AM)
Low68 °F (Mar 20, 6:00 AM)56% (Mar 18, 3:00 PM)29.68 "Hg (Mar 15, 3:00 PM)
Average82 °F85%29.81 "Hg
* Reported Mar 15 9:00 AM — Mar 30 9:00 AM, Bamenda, Weather by CustomWeather, © 2015

Note: Actual official high and low records may vary slightly from our data, if they occured in-between our weather recording intervals... More about our weather records

Advertising

Bamenda weather history for previous 24 hours

 ConditionsComfort  
Time TempWeatherWind HumidityBarometerVisibility
9:00 AM
Mon, Mar 30
82 °FThunderstorms. Broken clouds.No wind84%29.89 "HgN/A
8:00 AM79 °FThunderstorms. Broken clouds.No wind94%29.89 "Hg5 mi
7:00 AM77 °FThunderstorms. Broken clouds.No wind94%29.86 "Hg4 mi
6:00 AM77 °FThunderstorms. Partly cloudy.No wind100%29.86 "Hg3 mi
5:00 AM77 °FThunderstorms. Partly cloudy.No wind94%29.83 "Hg5 mi
4:00 AM75 °FThunderstorms. Partly cloudy.No wind100%29.86 "Hg5 mi
3:00 AM79 °FThunderstorms. Mostly cloudy.7 mph94%29.86 "Hg1 mi
2:00 AM79 °FPassing clouds.No wind94%29.86 "HgN/A
1:00 AM81 °FPassing clouds.No wind94%29.86 "HgN/A
12:00 AM81 °FPassing clouds.No wind94%29.89 "HgN/A
11:00 PM
Sun, Mar 29
81 °FPartly cloudy.No wind94%29.89 "HgN/A
10:00 PM81 °FPartly cloudy.3 mph94%29.89 "HgN/A
9:00 PM82 °FPartly cloudy.5 mph89%29.86 "HgN/A
8:00 PM82 °FThunderstorms. Passing clouds.5 mph84%29.83 "HgN/A
7:00 PM82 °FPassing clouds.7 mph84%29.83 "HgN/A
6:00 PM86 °FBroken clouds.7 mph75%29.80 "HgN/A
5:00 PM88 °FBroken clouds.7 mph70%29.80 "HgN/A
4:00 PM88 °FThunderstorms. Scattered clouds.9 mph66%29.80 "HgN/A
3:00 PM90 °FThunderstorms. Partly sunny.9 mph67%29.83 "HgN/A
2:00 PM90 °FThunderstorms. Partly sunny.9 mph63%29.83 "HgN/A
10:00 AM82 °FThunderstorms. Partly sunny.5 mph84%29.95 "HgN/A
Weather by CustomWeather, © 2015

See weather overviewHow to use our weather pages